Orbital Elements
Epoch 2025 May 5.0 TT = JDT 2460800.5
T 2025 Sept. 11.40460 TT Pike
q 5.4761127 (2000.0) P Q
z -0.0006447 Peri. 0.55977 -0.50515202 -0.69107359
+/-0.0000004 Node 119.89264 +0.78947963 -0.61199937
e 1.0035307 Incl. 36.60394 +0.34863067 +0.38454397
From 2204 observations 2022 Aug. 27-2025 Feb. 26, mean residual 0".5.
|